sat.trackr.live / text

‹ back to catalog

STARLINK-37178

NORAD 68526 · 2026-068U

PAYLOAD ACTIVE UNKNOWN

§ Identity

Operator
Country
US
Launch date
2026-03-30
Launch site
AFETR
Launch vehicle
Mass (kg)
RCS (m²)

Purposes: comms

External: N2YO · Heavens-Above · Gunter

§ Orbital elements

Epoch: 2026-05-25T02:56:22.931232Z

Period
93.37 min
Inclination
53.1574°
Eccentricity
0.0000565
Mean motion
15.42178380 rev/d
Perigee alt
439.3 km
Apogee alt
440.1 km
Semi-major
6,817.8 km
B*
6.3403e-4
RAAN
133.7984°
Arg perigee
27.6503°
Mean anomaly
332.4532°
Rev number
865

§ Raw data

STARLINK-371781 68526U 26068U   26145.12248763  .00027294  00000+0  63403-3 0  99922 68526  53.1574 133.7984 0000565  27.6503 332.4532 15.42178380  8658

JSON: /api/v1/satellites/68526 · /tle

For live sub-satellite position, see the globe view (requires WebGL).

§ Visibility from observer

Set your observer location to see the next 7 days of passes ≥ 10°. The values pass through the URL so the page stays shareable.

No JS? Fill the form by hand. The geolocation button needs JavaScript.